N852PS LSZG-LSZR

Flight info

Callsign N852PS
Flight time 0h 28m
Altitude 8000
Route WIL T125 ZUE
Aircraft TBM8/L-SDFGRWY/S

Departure

Time 2026-04-30 13:29
Airport Grenchen Airfield (LSZG)

Arrival

Time 2026-04-30 13:58
Airport Sankt Gallen Altenrhein Airport (LSZR)
Time Latitude Longitude Altitude Speed Heading
2026-04-30 13:18 47.18163 7.41207 1413 ft 0 kts 63°
2026-04-30 13:26 47.18169 7.41234 1394 ft 8 kts 104°
2026-04-30 13:27 47.18100 7.41160 1407 ft 9 kts 245°
2026-04-30 13:28 47.18001 7.41173 1406 ft 4 kts 133°
2026-04-30 13:28 47.18008 7.41220 1406 ft 18 kts 67°
2026-04-30 13:28 47.18136 7.41640 1408 ft 70 kts 67°
2026-04-30 13:29 47.18566 7.43169 2007 ft 91 kts 75°
2026-04-30 13:29 47.18799 7.45303 2851 ft 107 kts 86°
2026-04-30 13:30 47.19111 7.48566 4295 ft 113 kts 75°
2026-04-30 13:31 47.19433 7.50860 5374 ft 118 kts 79°
2026-04-30 13:31 47.19411 7.54554 6746 ft 127 kts 94°
2026-04-30 13:32 47.19293 7.57184 7611 ft 130 kts 92°
2026-04-30 13:32 47.19182 7.59871 8487 ft 132 kts 92°
2026-04-30 13:33 47.19069 7.62575 9372 ft 133 kts 92°
2026-04-30 13:33 47.18959 7.65319 10196 ft 136 kts 91°
2026-04-30 13:34 47.18900 7.66709 10587 ft 137 kts 91°
2026-04-30 13:34 47.18887 7.70848 11823 ft 134 kts 62°
2026-04-30 13:35 47.19160 7.72225 12027 ft 150 kts 80°
2026-04-30 13:35 47.19438 7.75707 12168 ft 192 kts 83°
2026-04-30 13:36 47.19745 7.79927 12196 ft 221 kts 82°
2026-04-30 13:36 47.19918 7.82214 12194 ft 230 kts 83°
2026-04-30 13:36 47.20275 7.87008 12197 ft 240 kts 83°
2026-04-30 13:37 47.20454 7.89460 12196 ft 243 kts 83°
2026-04-30 13:37 47.20823 7.94450 12198 ft 247 kts 83°
2026-04-30 13:38 47.21191 7.99492 12196 ft 249 kts 83°
2026-04-30 13:38 47.21378 8.02030 12191 ft 250 kts 83°
2026-04-30 13:38 47.21746 8.07113 12192 ft 250 kts 83°
2026-04-30 13:39 47.22115 8.12211 12189 ft 251 kts 83°
2026-04-30 13:39 47.22477 8.17315 12197 ft 251 kts 83°
2026-04-30 13:40 47.22658 8.19867 12194 ft 251 kts 83°
2026-04-30 13:40 47.22837 8.22409 12191 ft 251 kts 83°
2026-04-30 13:40 47.23015 8.24967 12200 ft 250 kts 83°
2026-04-30 13:40 47.23193 8.27513 12190 ft 251 kts 83°
2026-04-30 13:41 47.23377 8.30072 12193 ft 251 kts 83°
2026-04-30 13:41 47.23557 8.32624 12193 ft 251 kts 83°
2026-04-30 13:41 47.23735 8.35172 12205 ft 251 kts 83°
2026-04-30 13:41 47.23914 8.37725 12204 ft 251 kts 83°
2026-04-30 13:42 47.24094 8.40281 12203 ft 251 kts 83°
2026-04-30 13:42 47.24268 8.42836 12211 ft 251 kts 83°
2026-04-30 13:42 47.24615 8.47937 12243 ft 251 kts 83°
2026-04-30 13:43 47.24787 8.50480 12251 ft 251 kts 83°
2026-04-30 13:43 47.24957 8.53041 12243 ft 250 kts 83°
2026-04-30 13:43 47.25129 8.55588 12225 ft 251 kts 83°
2026-04-30 13:43 47.25306 8.58138 12231 ft 251 kts 83°
2026-04-30 13:44 47.25482 8.60686 12240 ft 251 kts 83°
2026-04-30 13:44 47.25658 8.63259 12116 ft 256 kts 83°
2026-04-30 13:44 47.25843 8.65922 11683 ft 269 kts 83°
2026-04-30 13:44 47.26047 8.68704 11240 ft 277 kts 83°
2026-04-30 13:45 47.26489 8.74413 10376 ft 283 kts 83°
2026-04-30 13:45 47.26721 8.77298 9927 ft 284 kts 83°
2026-04-30 13:45 47.27222 8.80086 9443 ft 285 kts 61°
2026-04-30 13:46 47.28511 8.82277 8986 ft 282 kts 45°
2026-04-30 13:46 47.29899 8.84285 8557 ft 277 kts 45°
2026-04-30 13:46 47.31273 8.86229 8175 ft 272 kts 44°
2026-04-30 13:46 47.32528 8.88285 7848 ft 266 kts 54°
2026-04-30 13:47 47.33471 8.90602 7602 ft 264 kts 62°
2026-04-30 13:47 47.34397 8.92926 7367 ft 263 kts 58°
2026-04-30 13:47 47.35367 8.95201 7259 ft 258 kts 59°
2026-04-30 13:47 47.36298 8.97434 7243 ft 252 kts 59°
2026-04-30 13:48 47.37203 8.99630 7237 ft 249 kts 59°
2026-04-30 13:48 47.38085 9.01770 7236 ft 247 kts 59°
2026-04-30 13:48 47.38983 9.03957 7235 ft 245 kts 59°
2026-04-30 13:48 47.39852 9.06079 7224 ft 244 kts 59°
2026-04-30 13:49 47.40728 9.08224 7230 ft 244 kts 59°
2026-04-30 13:49 47.41602 9.10363 7223 ft 243 kts 59°
2026-04-30 13:49 47.42475 9.12503 7186 ft 244 kts 59°
2026-04-30 13:49 47.43354 9.14670 7058 ft 248 kts 59°
2026-04-30 13:50 47.44243 9.16863 6931 ft 249 kts 60°
2026-04-30 13:50 47.46018 9.21241 6685 ft 248 kts 60°
2026-04-30 13:50 47.46906 9.23436 6414 ft 253 kts 60°
2026-04-30 13:51 47.47824 9.25698 6031 ft 257 kts 60°
2026-04-30 13:51 47.48747 9.27967 5649 ft 257 kts 60°
2026-04-30 13:51 47.49642 9.30207 5283 ft 241 kts 61°
2026-04-30 13:51 47.50404 9.32235 5014 ft 209 kts 61°
2026-04-30 13:52 47.50947 9.34048 4970 ft 182 kts 82°
2026-04-30 13:52 47.50804 9.35855 4852 ft 178 kts 101°
2026-04-30 13:52 47.50533 9.37562 4546 ft 161 kts 98°
2026-04-30 13:52 47.50363 9.39259 4241 ft 172 kts 95°
2026-04-30 13:53 47.50185 9.40979 3930 ft 156 kts 97°
2026-04-30 13:53 47.50009 9.42439 3665 ft 134 kts 93°
2026-04-30 13:53 47.49885 9.43725 3431 ft 120 kts 93°
2026-04-30 13:53 47.49807 9.44511 3285 ft 114 kts 93°
2026-04-30 13:54 47.49639 9.46012 3015 ft 106 kts 93°
2026-04-30 13:54 47.49521 9.47069 2832 ft 110 kts 91°
2026-04-30 13:54 47.49404 9.48249 2608 ft 121 kts 93°
2026-04-30 13:54 47.49231 9.49511 2380 ft 125 kts 96°
2026-04-30 13:55 47.49293 9.50701 2299 ft 120 kts 55°
2026-04-30 13:55 47.49797 9.51707 2317 ft 124 kts 52°
2026-04-30 13:55 47.50302 9.52692 2380 ft 116 kts 53°
2026-04-30 13:55 47.50541 9.53381 2381 ft 114 kts 74°
2026-04-30 13:56 47.50519 9.54573 2338 ft 120 kts 96°
2026-04-30 13:56 47.50271 9.55734 2295 ft 115 kts 104°
2026-04-30 13:56 47.50030 9.56719 2350 ft 92 kts 99°
2026-04-30 13:56 47.49823 9.57646 2194 ft 98 kts 99°
2026-04-30 13:57 47.49552 9.58561 2172 ft 98 kts 127°
2026-04-30 13:57 47.48893 9.58856 1921 ft 108 kts 190°
2026-04-30 13:57 47.48275 9.58350 1610 ft 96 kts 244°
2026-04-30 13:57 47.48338 9.57445 1420 ft 97 kts 295°
2026-04-30 13:58 47.48458 9.56470 1311 ft 88 kts 283°
2026-04-30 13:58 47.48571 9.55432 1313 ft 21 kts 280°
2026-04-30 13:58 47.48601 9.55326 1312 ft 3 kts 354°
2026-04-30 13:59 47.48649 9.55331 1310 ft 10 kts
2026-04-30 13:59 47.48690 9.55339 1310 ft 0 kts
2026-04-30 14:00 47.48707 9.55327 1310 ft 5 kts 276°
2026-04-30 14:00 47.48733 9.55213 1310 ft 0 kts 277°